Regional Weather Roundup
Issued by NWS Albany, NY

Home | Current Version | Previous Version | Text Only | Print | Product List | Glossary On
Versions: 1 2 3 4 5 6 7 8 9 10 11 12 13 14 15 16 17 18 19 20 21 22 23 24 25 26 27 28 29 30 31 32 33 34 35 36 37 38 39 40 41 42 43 44 45 46 47 48 49 50
097
ASUS41 KALY 082110
RWRALY

NEW YORK STATE HOURLY WEATHER ROUNDUP
NATIONAL WEATHER SERVICE ALBANY NY
400 PM EST MON FEB 08 2016

NOTE: "FAIR" INDICATES FEW OR NO CLOUDS BELOW 12,000 FEET WITH NO
SIGNIFICANT WEATHER AND/OR NO OBSTRUCTIONS TO VISIBILITY.

NYZ032-033-038>043-046>054-057>066-NYZ062>081-082200-
EAST


CITY           SKY/WX    TMP DP  RH WIND       PRES   REMARKS
ALBANY         CLOUDY    31  -2  24 VRB3      29.79R
GLENS FALLS    CLOUDY    32  -2  23 NE8       29.79S WCI  25
POUGHKEEPSIE   LGT SNOW  31  19  61 N15       29.76R WCI  20
NEWBURGH       CLOUDY    32  14  47 NE17      29.73R WCI  21
MONTGOMERY     CLOUDY    33  14  45 NE14      29.72S WCI  23
WHITE PLAINS   FLURRIES  29  22  75 N7        29.73R WCI  22
ISLIP          LGT SNOW  27  22  81 N14       29.72R VSB 1   WCI  16
NEW YORK CITY  CLOUDY    33  24  69 NE15      29.73S WCI  23
CENTRAL PARK   CLOUDY    32  22  66 NE9G17    29.74S WCI  24
$$

NYZ005>009-017-018-044>046-055-056-082200-
CENTRAL


CITY           SKY/WX    TMP DP  RH WIND       PRES   REMARKS
FULTON         CLOUDY    41  20  43 E6        29.68R
SYRACUSE       CLOUDY    38  20  48 E10       29.67S WCI  31
ROME           PTSUNNY   35  14  42 E13       29.72F WCI  26
ELMIRA         CLOUDY    40  24  53 E7        29.63F
BINGHAMTON     CLOUDY    37  19  48 SE9       29.62R WCI  30
MONTICELLO     CLOUDY    30   7  37 E10       29.67S WCI  21
$$

NYZ026>034-041>043-082200-
NORTH


CITY           SKY/WX    TMP DP  RH WIND       PRES   REMARKS
WATERTOWN      CLOUDY    29  17  61 NE15      29.72S WCI  18
FORT DRUM      NOT AVBL
MASSENA        CLOUDY    21   7  54 NE16G26   29.85F WCI   7
SARANAC LAKE   CLOUDY    25  14  63 NE12      29.70R WCI  14
PLATTSBURGH    CLOUDY    24   5  44 N12       29.85S WCI  13
$$

NYZ001>004-010>016-019>021-082200-
WEST


CITY           SKY/WX    TMP DP  RH WIND       PRES   REMARKS
NIAGARA FALLS  CLOUDY    46  28  49 E9        29.56F
BUFFALO        CLOUDY    46  26  45 SE10      29.57S
DUNKIRK        CLOUDY    45  28  51 S7        29.56S
JAMESTOWN      CLOUDY    41  23  48 SE8       29.52S
WELLSVILLE     CLOUDY    38  20  48 SE9       29.57S WCI  31
ROCHESTER      CLOUDY    41  25  53 E13       29.64R
PENN YAN       CLOUDY    40  24  53 SE8       29.64R WCI  34
$$

             KEY
       WCI = WIND CHILL INDEX
       VSB = VISIBILITY
       HX  = HEAT INDEX
$$




USA.gov is the U.S. government's official web portal to all federal, state and local government web resources and services.